Time,TemperatureF,DewpointF,PressureIn,WindDirection,WindDirectionDegrees,WindSpeedMPH,WindSpeedGustMPH,Humidity,HourlyPrecipIn,Conditions,Clouds,dailyrainin,SoftwareType,DateUTC
2013-01-10 00:04:00,49.5,47.6,30.22,SSE,156,0.0,16.0,93,0.01,,---,0.43,VWS V13.01,2013-01-10 06:04:00,
2013-01-10 00:09:00,49.5,47.6,30.21,ENE,69,1.0,11.0,93,0.00,,---,0.00,VWS V13.01,2013-01-10 06:09:00,
2013-01-10 00:15:00,49.6,47.7,30.21,ENE,61,6.0,12.0,93,0.00,,---,0.00,VWS V13.01,2013-01-10 06:15:00,
2013-01-10 00:20:00,49.7,47.8,30.20,ESE,123,2.0,15.0,93,0.00,,---,0.00,VWS V13.01,2013-01-10 06:20:00,
2013-01-10 00:25:00,49.7,47.8,30.20,ESE,102,3.0,15.0,93,0.00,,---,0.00,VWS V13.01,2013-01-10 06:25:00,
2013-01-10 00:30:00,49.8,47.9,30.21,ESE,106,5.0,15.0,93,0.00,,---,0.00,VWS V13.01,2013-01-10 06:30:00,
2013-01-10 00:35:00,49.8,47.9,30.20,NNE,33,4.0,15.0,93,0.00,,---,0.00,VWS V13.01,2013-01-10 06:35:00,
2013-01-10 00:40:00,49.9,48.0,30.19,ENE,59,7.0,11.0,93,0.00,,---,0.00,VWS V13.01,2013-01-10 06:40:00,
2013-01-10 00:45:00,49.9,48.0,30.19,NE,37,6.0,15.0,93,0.00,,---,0.00,VWS V13.01,2013-01-10 06:45:00,
2013-01-10 00:50:00,49.9,48.0,30.20,ENE,72,4.0,15.0,93,0.00,,---,0.00,VWS V13.01,2013-01-10 06:50:00,
2013-01-10 01:05:00,50.0,48.1,30.20,East,80,1.0,15.0,93,0.00,,---,0.00,VWS V13.01,2013-01-10 07:05:00,
2013-01-10 01:35:00,50.0,48.1,30.21,ENE,69,2.0,14.0,93,0.00,,---,0.00,VWS V13.01,2013-01-10 07:35:00,
2013-01-10 01:50:00,50.0,48.1,30.21,East,100,9.0,10.0,93,0.00,,---,0.00,VWS V13.01,2013-01-10 07:50:00,
2013-01-10 01:55:00,50.0,48.1,30.20,ESE,115,3.0,10.0,93,0.00,,---,0.00,VWS V13.01,2013-01-10 07:55:00,
2013-01-10 02:00:00,50.0,48.1,30.20,East,85,5.0,11.0,93,0.00,,---,0.00,VWS V13.01,2013-01-10 08:00:00,
2013-01-10 02:05:00,50.1,48.2,30.20,ESE,103,3.0,13.0,93,0.00,,---,0.00,VWS V13.01,2013-01-10 08:05:00,
2013-01-10 02:10:00,50.1,48.2,30.19,ENE,68,10.0,12.0,93,0.00,,---,0.00,VWS V13.01,2013-01-10 08:10:00,
2013-01-10 02:15:00,50.1,48.2,30.19,East,80,3.0,13.0,93,0.00,,---,0.00,VWS V13.01,2013-01-10 08:15:00,
2013-01-10 02:20:00,50.0,48.1,30.18,East,80,3.0,14.0,93,0.00,,---,0.00,VWS V13.01,2013-01-10 08:20:00,
2013-01-10 02:25:00,50.0,48.1,30.19,ESE,123,7.0,14.0,93,0.00,,---,0.00,VWS V13.01,2013-01-10 08:25:00,
2013-01-10 02:30:00,49.9,48.0,30.18,ENE,66,8.0,14.0,93,0.00,,---,0.00,VWS V13.01,2013-01-10 08:30:00,
2013-01-10 02:36:00,49.8,47.9,30.18,NNE,32,5.0,5.0,93,0.00,,---,0.00,VWS V13.01,2013-01-10 08:36:00,
2013-01-10 02:41:00,49.7,47.8,30.17,East,79,1.0,13.0,93,0.00,,---,0.00,VWS V13.01,2013-01-10 08:41:00,
2013-01-10 02:46:00,49.7,47.8,30.17,NE,46,7.0,13.0,93,0.00,,---,0.00,VWS V13.01,2013-01-10 08:46:00,
2013-01-10 02:51:00,49.6,47.7,30.17,ESE,123,10.0,13.0,93,0.00,,---,0.00,VWS V13.01,2013-01-10 08:51:00,
2013-01-10 02:56:00,49.6,47.7,30.17,ENE,74,6.0,13.0,93,0.00,,---,0.00,VWS V13.01,2013-01-10 08:56:00,
2013-01-10 03:01:00,49.5,47.6,30.18,ESE,102,3.0,13.0,93,0.01,,---,0.01,VWS V13.01,2013-01-10 09:01:00,
2013-01-10 03:06:00,49.5,47.6,30.18,East,83,9.0,11.0,93,0.01,,---,0.01,VWS V13.01,2013-01-10 09:06:00,
2013-01-10 03:11:00,49.5,47.6,30.18,ENE,78,8.0,11.0,93,0.01,,---,0.01,VWS V13.01,2013-01-10 09:11:00,
2013-01-10 03:16:00,49.5,47.6,30.18,ESE,105,5.0,11.0,93,0.01,,---,0.01,VWS V13.01,2013-01-10 09:16:00,
2013-01-10 03:21:00,49.5,47.6,30.17,East,95,1.0,11.0,93,0.01,,---,0.01,VWS V13.01,2013-01-10 09:21:00,
2013-01-10 03:26:00,49.5,47.6,30.17,ENE,76,2.0,11.0,93,0.01,,---,0.01,VWS V13.01,2013-01-10 09:26:00,
2013-01-10 03:31:00,49.4,47.5,30.16,SSW,192,3.0,11.0,93,0.01,,---,0.01,VWS V13.01,2013-01-10 09:31:00,
2013-01-10 03:36:00,49.4,47.5,30.15,NE,53,4.0,12.0,93,0.01,,---,0.01,VWS V13.01,2013-01-10 09:36:00,
2013-01-10 03:41:00,49.4,47.5,30.14,NE,36,5.0,13.0,93,0.01,,---,0.01,VWS V13.01,2013-01-10 09:41:00,
2013-01-10 03:46:00,49.4,47.5,30.14,NNE,12,0.0,15.0,93,0.01,,---,0.01,VWS V13.01,2013-01-10 09:46:00,
2013-01-10 03:51:00,49.4,47.8,30.14,East,84,4.0,15.0,94,0.01,,---,0.01,VWS V13.01,2013-01-10 09:51:00,
2013-01-10 03:56:00,49.4,47.8,30.13,East,94,2.0,15.0,94,0.01,,---,0.01,VWS V13.01,2013-01-10 09:56:00,
2013-01-10 04:01:00,49.4,47.5,30.13,East,86,3.0,15.0,93,0.01,,---,0.01,VWS V13.01,2013-01-10 10:01:00,
2013-01-10 04:06:00,49.4,47.5,30.13,East,94,3.0,7.0,93,0.00,,---,0.01,VWS V13.01,2013-01-10 10:06:00,
2013-01-10 04:12:00,49.4,47.5,30.13,NNE,28,3.0,7.0,93,0.00,,---,0.01,VWS V13.01,2013-01-10 10:12:00,
2013-01-10 04:17:00,49.4,47.5,30.13,East,101,1.0,7.0,93,0.00,,---,0.01,VWS V13.01,2013-01-10 10:17:00,
2013-01-10 04:22:00,49.4,47.5,30.13,ENE,67,1.0,7.0,93,0.00,,---,0.01,VWS V13.01,2013-01-10 10:22:00,
2013-01-10 04:27:00,49.4,47.5,30.13,NE,53,1.0,7.0,93,0.00,,---,0.01,VWS V13.01,2013-01-10 10:27:00,
2013-01-10 04:32:00,49.3,47.4,30.13,East,86,0.0,7.0,93,0.00,,---,0.01,VWS V13.01,2013-01-10 10:32:00,
2013-01-10 04:37:00,49.3,47.7,30.12,ENE,66,4.0,7.0,94,0.00,,---,0.01,VWS V13.01,2013-01-10 10:37:00,
2013-01-10 04:42:00,49.3,47.7,30.11,East,98,2.0,10.0,94,0.00,,---,0.01,VWS V13.01,2013-01-10 10:42:00,
2013-01-10 04:47:00,49.3,47.7,30.11,ENE,60,7.0,10.0,94,0.00,,---,0.01,VWS V13.01,2013-01-10 10:47:00,
2013-01-10 04:52:00,49.3,47.7,30.11,East,83,7.0,10.0,94,0.00,,---,0.01,VWS V13.01,2013-01-10 10:52:00,
2013-01-10 04:57:00,49.3,47.7,30.11,ENE,58,1.0,10.0,94,0.00,,---,0.01,VWS V13.01,2013-01-10 10:57:00,
2013-01-10 05:02:00,49.3,47.7,30.11,ENE,65,3.0,10.0,94,0.00,,---,0.01,VWS V13.01,2013-01-10 11:02:00,
2013-01-10 05:07:00,49.3,47.7,30.11,East,95,2.0,4.0,94,0.00,,---,0.01,VWS V13.01,2013-01-10 11:07:00,
2013-01-10 05:12:00,49.4,47.8,30.11,ENE,65,3.0,10.0,94,0.00,,---,0.01,VWS V13.01,2013-01-10 11:12:00,
2013-01-10 05:18:00,49.4,47.8,30.11,ESE,111,3.0,10.0,94,0.00,,---,0.01,VWS V13.01,2013-01-10 11:18:00,
2013-01-10 05:23:00,49.4,47.8,30.11,ESE,107,0.0,10.0,94,0.00,,---,0.01,VWS V13.01,2013-01-10 11:23:00,
2013-01-10 05:28:00,49.4,47.8,30.11,ESE,107,1.0,10.0,94,0.00,,---,0.01,VWS V13.01,2013-01-10 11:28:00,
2013-01-10 05:33:00,49.4,47.8,30.10,ESE,107,0.0,10.0,94,0.00,,---,0.01,VWS V13.01,2013-01-10 11:33:00,
2013-01-10 05:38:00,49.4,47.8,30.10,ESE,107,1.0,3.0,94,0.00,,---,0.01,VWS V13.01,2013-01-10 11:38:00,
2013-01-10 05:43:00,49.4,47.8,30.10,ESE,106,0.0,5.0,94,0.00,,---,0.01,VWS V13.01,2013-01-10 11:43:00,
2013-01-10 05:48:00,49.5,47.8,30.10,SE,124,4.0,13.0,94,0.00,,---,0.01,VWS V13.01,2013-01-10 11:48:00,
2013-01-10 05:53:00,49.6,48.0,30.09,ENE,71,5.0,13.0,94,0.00,,---,0.01,VWS V13.01,2013-01-10 11:53:00,
2013-01-10 05:58:00,49.7,48.0,30.09,ENE,59,6.0,13.0,94,0.00,,---,0.01,VWS V13.01,2013-01-10 11:58:00,
2013-01-10 06:03:00,49.7,48.0,30.09,ESE,111,4.0,13.0,94,0.00,,---,0.01,VWS V13.01,2013-01-10 12:03:00,
2013-01-10 06:08:00,49.8,48.2,30.09,East,88,2.0,4.0,94,0.00,,---,0.01,VWS V13.01,2013-01-10 12:08:00,
2013-01-10 06:13:00,49.9,48.2,30.09,SE,129,3.0,9.0,94,0.00,,---,0.01,VWS V13.01,2013-01-10 12:13:00,
2013-01-10 06:19:00,50.0,48.3,30.09,ESE,123,6.0,10.0,94,0.00,,---,0.01,VWS V13.01,2013-01-10 12:19:00,
2013-01-10 06:24:00,50.0,48.3,30.09,East,98,6.0,11.0,94,0.00,,---,0.01,VWS V13.01,2013-01-10 12:24:00,
2013-01-10 06:29:00,50.1,48.4,30.09,NE,51,4.0,11.0,94,0.00,,---,0.01,VWS V13.01,2013-01-10 12:29:00,
2013-01-10 06:34:00,50.1,48.4,30.09,South,169,2.0,13.0,94,0.00,,---,0.01,VWS V13.01,2013-01-10 12:34:00,
2013-01-10 06:39:00,50.1,48.4,30.09,ESE,103,1.0,6.0,94,0.01,,---,0.02,VWS V13.01,2013-01-10 12:39:00,
2013-01-10 06:44:00,50.2,48.5,30.10,NNW,334,0.0,8.0,94,0.01,,---,0.02,VWS V13.01,2013-01-10 12:44:00,
2013-01-10 06:49:00,50.2,48.5,30.10,SSW,209,5.0,8.0,94,0.01,,---,0.02,VWS V13.01,2013-01-10 12:49:00,
2013-01-10 06:54:00,50.2,48.5,30.09,East,80,1.0,8.0,94,0.01,,---,0.02,VWS V13.01,2013-01-10 12:54:00,
2013-01-10 06:59:00,50.2,48.5,30.09,East,87,1.0,8.0,94,0.01,,---,0.02,VWS V13.01,2013-01-10 12:59:00,
2013-01-10 07:04:00,50.2,48.5,30.08,ESE,109,4.0,11.0,94,0.01,,---,0.02,VWS V13.01,2013-01-10 13:04:00,
2013-01-10 07:09:00,50.2,48.8,30.08,East,98,4.0,9.0,95,0.01,,---,0.02,VWS V13.01,2013-01-10 13:09:00,
2013-01-10 07:14:00,50.3,48.9,30.08,ESE,110,3.0,9.0,95,0.01,,---,0.02,VWS V13.01,2013-01-10 13:14:00,
2013-01-10 07:19:00,50.3,48.9,30.07,SE,137,4.0,9.0,95,0.01,,---,0.02,VWS V13.01,2013-01-10 13:19:00,
2013-01-10 07:24:00,50.4,49.0,30.07,East,92,4.0,9.0,95,0.02,,---,0.03,VWS V13.01,2013-01-10 13:24:00,
2013-01-10 07:29:00,50.4,49.0,30.07,East,93,2.0,9.0,95,0.02,,---,0.03,VWS V13.01,2013-01-10 13:29:00,
2013-01-10 07:34:00,50.5,49.1,30.08,East,93,3.0,9.0,95,0.02,,---,0.03,VWS V13.01,2013-01-10 13:34:00,
2013-01-10 07:39:00,50.5,49.1,30.08,East,96,4.0,6.0,95,0.01,,---,0.03,VWS V13.01,2013-01-10 13:39:00,
2013-01-10 07:44:00,50.6,49.2,30.09,East,98,1.0,6.0,95,0.01,,---,0.03,VWS V13.01,2013-01-10 13:44:00,
2013-01-10 07:49:00,50.6,49.2,30.08,ESE,111,1.0,6.0,95,0.01,,---,0.03,VWS V13.01,2013-01-10 13:49:00,
2013-01-10 07:54:00,50.8,49.4,30.07,ESE,109,5.0,9.0,95,0.01,,---,0.03,VWS V13.01,2013-01-10 13:54:00,
2013-01-10 08:00:00,50.9,49.5,30.06,ESE,109,3.0,10.0,95,0.01,,---,0.03,VWS V13.01,2013-01-10 14:00:00,
2013-01-10 08:05:00,51.0,49.6,30.05,East,84,4.0,13.0,95,0.01,,---,0.03,VWS V13.01,2013-01-10 14:05:00,
2013-01-10 08:10:00,51.1,49.7,30.04,ESE,109,5.0,18.0,95,0.01,,---,0.03,VWS V13.01,2013-01-10 14:10:00,
2013-01-10 08:15:00,51.1,49.7,30.04,ENE,67,9.0,18.0,95,0.01,,---,0.03,VWS V13.01,2013-01-10 14:15:00,
2013-01-10 08:20:00,51.2,49.8,30.06,SE,124,9.0,18.0,95,0.01,,---,0.03,VWS V13.01,2013-01-10 14:20:00,
2013-01-10 08:25:00,51.2,49.8,30.07,South,173,3.0,18.0,95,0.01,,---,0.03,VWS V13.01,2013-01-10 14:25:00,
2013-01-10 08:30:00,51.3,49.9,30.08,SSE,167,0.0,18.0,95,0.01,,---,0.03,VWS V13.01,2013-01-10 14:30:00,
2013-01-10 08:35:00,51.4,50.0,30.08,ESE,118,6.0,18.0,95,0.01,,---,0.03,VWS V13.01,2013-01-10 14:35:00,
2013-01-10 08:40:00,51.5,50.1,30.08,SSE,149,0.0,10.0,95,0.00,,---,0.03,VWS V13.01,2013-01-10 14:40:00,
2013-01-10 08:45:00,51.5,50.1,30.08,SSE,147,0.0,10.0,95,0.01,,---,0.04,VWS V13.01,2013-01-10 14:45:00,
2013-01-10 08:50:00,51.5,50.1,30.07,East,99,4.0,10.0,95,0.02,,---,0.05,VWS V13.01,2013-01-10 14:50:00,
2013-01-10 08:55:00,51.5,50.1,30.07,East,101,1.0,10.0,95,0.02,,---,0.05,VWS V13.01,2013-01-10 14:55:00,
2013-01-10 09:00:00,51.6,50.2,30.07,South,186,0.0,10.0,95,0.02,,---,0.05,VWS V13.01,2013-01-10 15:00:00,
2013-01-10 09:05:00,51.7,50.3,30.07,East,99,2.0,4.0,95,0.02,,---,0.05,VWS V13.01,2013-01-10 15:05:00,
2013-01-10 09:11:00,51.7,50.3,30.07,ESE,119,3.0,9.0,95,0.02,,---,0.05,VWS V13.01,2013-01-10 15:11:00,
2013-01-10 09:16:00,51.8,50.4,30.06,SE,128,2.0,9.0,95,0.03,,---,0.06,VWS V13.01,2013-01-10 15:16:00,
2013-01-10 09:21:00,51.8,50.4,30.06,East,82,3.0,9.0,95,0.03,,---,0.06,VWS V13.01,2013-01-10 15:21:00,
2013-01-10 09:26:00,51.9,50.5,30.05,SE,134,2.0,11.0,95,0.03,,---,0.06,VWS V13.01,2013-01-10 15:26:00,
2013-01-10 09:31:00,51.9,50.5,30.04,ESE,103,4.0,11.0,95,0.03,,---,0.06,VWS V13.01,2013-01-10 15:31:00,
2013-01-10 09:36:00,52.0,50.6,30.04,East,90,1.0,4.0,95,0.03,,---,0.06,VWS V13.01,2013-01-10 15:36:00,
2013-01-10 09:41:00,52.0,50.6,30.05,ESE,102,3.0,9.0,95,0.03,,---,0.06,VWS V13.01,2013-01-10 15:41:00,
2013-01-10 09:46:00,52.1,50.7,30.04,ESE,117,0.0,9.0,95,0.03,,---,0.06,VWS V13.01,2013-01-10 15:46:00,
2013-01-10 09:51:00,52.2,50.8,30.05,East,101,2.0,9.0,95,0.03,,---,0.06,VWS V13.01,2013-01-10 15:51:00,
2013-01-10 09:56:00,52.3,50.9,30.04,ESE,105,2.0,9.0,95,0.03,,---,0.06,VWS V13.01,2013-01-10 15:56:00,
2013-01-10 10:01:00,52.4,51.0,30.05,ESE,113,0.0,9.0,95,0.03,,---,0.06,VWS V13.01,2013-01-10 16:01:00,
2013-01-10 10:07:00,52.5,51.1,30.05,South,190,0.0,0.0,95,0.01,,---,0.06,VWS V13.01,2013-01-10 16:07:00,
2013-01-10 10:12:00,52.7,51.6,30.04,East,92,3.0,6.0,96,0.01,,---,0.06,VWS V13.01,2013-01-10 16:12:00,
2013-01-10 10:17:00,53.0,51.9,30.03,East,80,4.0,6.0,96,0.01,,---,0.06,VWS V13.01,2013-01-10 16:17:00,
2013-01-10 10:22:00,53.3,52.2,30.02,East,90,3.0,8.0,96,0.01,,---,0.06,VWS V13.01,2013-01-10 16:22:00,
2013-01-10 10:27:00,53.5,52.4,30.03,ESE,119,5.0,8.0,96,0.01,,---,0.06,VWS V13.01,2013-01-10 16:27:00,
2013-01-10 10:32:00,53.7,52.6,30.03,ESE,106,2.0,8.0,96,0.01,,---,0.06,VWS V13.01,2013-01-10 16:32:00,
2013-01-10 10:37:00,53.9,52.8,30.03,SE,125,2.0,6.0,96,0.00,,---,0.06,VWS V13.01,2013-01-10 16:37:00,
2013-01-10 10:42:00,54.1,53.0,30.03,ESE,121,4.0,9.0,96,0.00,,---,0.06,VWS V13.01,2013-01-10 16:42:00,
2013-01-10 10:47:00,54.2,53.1,30.03,East,95,4.0,9.0,96,0.00,,---,0.06,VWS V13.01,2013-01-10 16:47:00,
2013-01-10 10:52:00,54.4,53.3,30.02,East,95,5.0,9.0,96,0.00,,---,0.06,VWS V13.01,2013-01-10 16:52:00,
2013-01-10 10:57:00,54.5,53.4,30.02,East,98,2.0,9.0,96,0.00,,---,0.06,VWS V13.01,2013-01-10 16:57:00,
2013-01-10 11:02:00,54.6,53.5,30.02,East,98,1.0,9.0,96,0.00,,---,0.06,VWS V13.01,2013-01-10 17:02:00,
2013-01-10 11:07:00,54.6,53.5,30.01,East,98,4.0,4.0,96,0.00,,---,0.06,VWS V13.01,2013-01-10 17:07:00,
2013-01-10 11:12:00,54.7,53.6,30.00,East,98,1.0,4.0,96,0.00,,---,0.06,VWS V13.01,2013-01-10 17:12:00,
2013-01-10 11:17:00,54.8,53.7,30.00,East,98,2.0,4.0,96,0.00,,---,0.06,VWS V13.01,2013-01-10 17:17:00,
2013-01-10 11:22:00,54.9,53.8,30.00,East,98,2.0,4.0,96,0.00,,---,0.06,VWS V13.01,2013-01-10 17:22:00,
2013-01-10 11:27:00,55.0,53.9,30.00,East,99,3.0,6.0,96,0.00,,---,0.06,VWS V13.01,2013-01-10 17:27:00,
2013-01-10 11:32:00,55.0,53.9,29.99,East,95,1.0,6.0,96,0.00,,---,0.06,VWS V13.01,2013-01-10 17:32:00,
2013-01-10 11:37:00,55.0,53.9,29.99,ESE,105,5.0,7.0,96,0.00,,---,0.06,VWS V13.01,2013-01-10 17:37:00,
2013-01-10 11:42:00,55.0,53.9,29.98,ESE,119,2.0,7.0,96,0.00,,---,0.06,VWS V13.01,2013-01-10 17:42:00,
2013-01-10 11:47:00,55.1,54.0,29.98,East,99,1.0,7.0,96,0.00,,---,0.06,VWS V13.01,2013-01-10 17:47:00,
2013-01-10 11:53:00,55.3,54.2,29.97,East,82,5.0,7.0,96,0.00,,---,0.06,VWS V13.01,2013-01-10 17:53:00,
2013-01-10 11:58:00,55.5,54.4,29.97,ESE,103,5.0,7.0,96,0.00,,---,0.06,VWS V13.01,2013-01-10 17:58:00,
2013-01-10 12:03:00,55.7,54.6,29.96,ESE,103,0.0,7.0,96,0.00,,---,0.06,VWS V13.01,2013-01-10 18:03:00,
2013-01-10 12:08:00,56.0,54.9,29.96,East,92,5.0,7.0,96,0.00,,---,0.06,VWS V13.01,2013-01-10 18:08:00,
2013-01-10 12:13:00,56.0,54.9,29.97,ESE,113,1.0,7.0,96,0.00,,---,0.06,VWS V13.01,2013-01-10 18:13:00,
2013-01-10 12:18:00,56.2,55.1,29.96,ESE,113,0.0,7.0,96,0.00,,---,0.06,VWS V13.01,2013-01-10 18:18:00,
2013-01-10 12:23:00,56.3,55.2,29.96,ESE,113,1.0,7.0,96,0.00,,---,0.06,VWS V13.01,2013-01-10 18:23:00,
2013-01-10 12:29:00,56.4,55.3,29.96,ESE,113,3.0,7.0,96,0.00,,---,0.06,VWS V13.01,2013-01-10 18:29:00,
2013-01-10 12:34:00,56.4,55.3,29.95,ESE,107,6.0,9.0,96,0.00,,---,0.06,VWS V13.01,2013-01-10 18:34:00,
2013-01-10 12:39:00,56.4,55.3,29.95,East,82,4.0,6.0,96,0.00,,---,0.06,VWS V13.01,2013-01-10 18:39:00,
2013-01-10 12:44:00,56.6,55.5,29.94,ESE,114,3.0,10.0,96,0.00,,---,0.06,VWS V13.01,2013-01-10 18:44:00,
2013-01-10 12:49:00,56.6,55.5,29.93,ESE,113,3.0,10.0,96,0.00,,---,0.06,VWS V13.01,2013-01-10 18:49:00,
2013-01-10 12:54:00,56.8,55.7,29.92,East,99,4.0,10.0,96,0.00,,---,0.06,VWS V13.01,2013-01-10 18:54:00,
2013-01-10 12:59:00,56.9,55.8,29.92,ESE,105,4.0,10.0,96,0.00,,---,0.06,VWS V13.01,2013-01-10 18:59:00,
2013-01-10 13:04:00,57.1,56.0,29.92,East,96,3.0,10.0,96,0.00,,---,0.06,VWS V13.01,2013-01-10 19:04:00,
2013-01-10 13:09:00,57.3,56.2,29.91,ESE,121,2.0,9.0,96,0.00,,---,0.06,VWS V13.01,2013-01-10 19:09:00,
2013-01-10 13:14:00,57.5,56.4,29.91,SSE,156,2.0,10.0,96,0.00,,---,0.06,VWS V13.01,2013-01-10 19:14:00,
2013-01-10 13:19:00,57.6,56.5,29.90,SE,126,4.0,10.0,96,0.00,,---,0.06,VWS V13.01,2013-01-10 19:19:00,
2013-01-10 13:24:00,57.7,56.6,29.90,SE,127,5.0,10.0,96,0.00,,---,0.06,VWS V13.01,2013-01-10 19:24:00,
2013-01-10 13:29:00,57.7,56.6,29.90,ESE,105,2.0,10.0,96,0.00,,---,0.06,VWS V13.01,2013-01-10 19:29:00,
2013-01-10 13:34:00,57.9,56.8,29.90,SE,132,2.0,10.0,96,0.00,,---,0.06,VWS V13.01,2013-01-10 19:34:00,
2013-01-10 13:39:00,58.0,56.9,29.89,SE,145,3.0,7.0,96,0.00,,---,0.06,VWS V13.01,2013-01-10 19:39:00,
2013-01-10 13:44:00,58.0,56.9,29.89,SSW,198,0.0,7.0,96,0.00,,---,0.06,VWS V13.01,2013-01-10 19:44:00,
2013-01-10 13:50:00,57.9,56.8,29.89,SE,145,3.0,9.0,96,0.00,,---,0.06,VWS V13.01,2013-01-10 19:50:00,
2013-01-10 13:55:00,57.8,56.7,29.88,ESE,121,3.0,9.0,96,0.00,,---,0.06,VWS V13.01,2013-01-10 19:55:00,
2013-01-10 14:00:00,57.7,56.6,29.88,SSE,167,3.0,9.0,96,0.00,,---,0.06,VWS V13.01,2013-01-10 20:00:00,
2013-01-10 14:05:00,57.6,56.5,29.88,ESE,113,1.0,9.0,96,0.00,,---,0.06,VWS V13.01,2013-01-10 20:05:00,
2013-01-10 14:10:00,57.6,56.5,29.88,SE,132,2.0,7.0,96,0.00,,---,0.06,VWS V13.01,2013-01-10 20:10:00,
2013-01-10 14:15:00,57.5,56.4,29.88,SE,130,1.0,7.0,96,0.00,,---,0.06,VWS V13.01,2013-01-10 20:15:00,
2013-01-10 14:20:00,57.5,56.4,29.87,ESE,102,3.0,7.0,96,0.00,,---,0.06,VWS V13.01,2013-01-10 20:20:00,
2013-01-10 14:25:00,57.6,56.5,29.86,SE,140,6.0,10.0,96,0.00,,---,0.06,VWS V13.01,2013-01-10 20:25:00,
2013-01-10 14:30:00,57.6,56.5,29.86,ESE,105,5.0,10.0,96,0.01,,---,0.07,VWS V13.01,2013-01-10 20:30:00,
2013-01-10 14:35:00,57.6,56.5,29.86,SE,138,2.0,10.0,96,0.01,,---,0.07,VWS V13.01,2013-01-10 20:35:00,
2013-01-10 14:40:00,57.6,56.5,29.86,SE,138,2.0,7.0,96,0.01,,---,0.07,VWS V13.01,2013-01-10 20:40:00,
2013-01-10 14:45:00,57.6,56.5,29.85,SSE,151,0.0,7.0,96,0.01,,---,0.07,VWS V13.01,2013-01-10 20:45:00,
2013-01-10 14:50:00,57.6,56.5,29.85,ESE,103,4.0,10.0,96,0.02,,---,0.08,VWS V13.01,2013-01-10 20:50:00,
2013-01-10 14:58:00,57.6,56.5,29.86,ESE,110,2.0,10.0,96,0.02,,---,0.08,VWS V13.01,2013-01-10 20:58:00,
2013-01-10 15:03:00,57.6,56.5,29.85,ESE,120,5.0,10.0,96,0.02,,---,0.08,VWS V13.01,2013-01-10 21:03:00,
2013-01-10 15:08:00,57.7,56.6,29.85,East,94,6.0,6.0,96,0.02,,---,0.08,VWS V13.01,2013-01-10 21:08:00,
2013-01-10 15:13:00,57.7,56.6,29.85,SE,138,1.0,7.0,96,0.02,,---,0.08,VWS V13.01,2013-01-10 21:13:00,
2013-01-10 15:18:00,57.8,56.7,29.85,SE,137,4.0,7.0,96,0.02,,---,0.08,VWS V13.01,2013-01-10 21:18:00,
2013-01-10 15:23:00,57.8,56.7,29.85,SE,135,4.0,7.0,96,0.02,,---,0.08,VWS V13.01,2013-01-10 21:23:00,
2013-01-10 15:28:00,57.9,56.8,29.85,SE,126,3.0,9.0,96,0.03,,---,0.09,VWS V13.01,2013-01-10 21:28:00,
2013-01-10 15:33:00,57.9,56.8,29.85,SE,140,1.0,10.0,96,0.03,,---,0.09,VWS V13.01,2013-01-10 21:33:00,
2013-01-10 15:39:00,57.9,56.8,29.85,SSE,157,1.0,3.0,96,0.02,,---,0.09,VWS V13.01,2013-01-10 21:39:00,
2013-01-10 15:44:00,57.9,56.8,29.85,SSE,156,1.0,7.0,96,0.02,,---,0.09,VWS V13.01,2013-01-10 21:44:00,
2013-01-10 15:49:00,57.9,56.8,29.85,SSE,156,1.0,7.0,96,0.02,,---,0.09,VWS V13.01,2013-01-10 21:49:00,
2013-01-10 15:54:00,58.0,56.9,29.85,East,101,0.0,7.0,96,0.02,,---,0.09,VWS V13.01,2013-01-10 21:54:00,
2013-01-10 15:59:00,58.0,56.9,29.85,ESE,117,0.0,7.0,96,0.02,,---,0.09,VWS V13.01,2013-01-10 21:59:00,
2013-01-10 16:04:00,58.1,57.0,29.84,ESE,123,0.0,7.0,96,0.02,,---,0.09,VWS V13.01,2013-01-10 22:04:00,
2013-01-10 16:09:00,58.1,57.0,29.84,East,88,0.0,0.0,96,0.01,,---,0.09,VWS V13.01,2013-01-10 22:09:00,
2013-01-10 16:14:00,58.1,57.0,29.84,ESE,121,0.0,0.0,96,0.01,,---,0.09,VWS V13.01,2013-01-10 22:14:00,
2013-01-10 16:19:00,58.1,57.0,29.84,WSW,245,0.0,0.0,96,0.01,,---,0.09,VWS V13.01,2013-01-10 22:19:00,
2013-01-10 16:24:00,58.1,57.0,29.84,ESE,111,0.0,0.0,96,0.01,,---,0.09,VWS V13.01,2013-01-10 22:24:00,
2013-01-10 16:29:00,58.1,57.0,29.85,SE,135,0.0,0.0,96,0.02,,---,0.10,VWS V13.01,2013-01-10 22:29:00,
2013-01-10 16:34:00,58.1,57.0,29.85,ESE,110,0.0,0.0,96,0.02,,---,0.10,VWS V13.01,2013-01-10 22:34:00,
2013-01-10 16:39:00,58.2,57.1,29.84,ESE,111,0.0,0.0,96,0.02,,---,0.12,VWS V13.01,2013-01-10 22:39:00,
2013-01-10 16:44:00,58.2,57.1,29.84,ESE,110,0.0,0.0,96,0.03,,---,0.12,VWS V13.01,2013-01-10 22:44:00,
2013-01-10 16:49:00,58.2,57.1,29.85,ESE,115,0.0,0.0,96,0.03,,---,0.12,VWS V13.01,2013-01-10 22:49:00,
2013-01-10 16:54:00,58.2,57.1,29.85,ESE,118,0.0,0.0,96,0.03,,---,0.12,VWS V13.01,2013-01-10 22:54:00,
2013-01-10 16:59:00,58.2,57.1,29.85,ESE,118,0.0,0.0,96,0.03,,---,0.12,VWS V13.01,2013-01-10 22:59:00,
2013-01-10 17:05:00,58.2,57.1,29.85,ESE,118,0.0,0.0,96,0.03,,---,0.12,VWS V13.01,2013-01-10 23:05:00,
2013-01-10 17:10:00,58.2,57.1,29.85,SE,128,0.0,0.0,96,0.03,,---,0.12,VWS V13.01,2013-01-10 23:10:00,
2013-01-10 17:15:00,58.2,57.1,29.85,SE,128,0.0,0.0,96,0.03,,---,0.12,VWS V13.01,2013-01-10 23:15:00,
2013-01-10 17:20:00,58.2,57.1,29.85,SSW,192,0.0,0.0,96,0.03,,---,0.12,VWS V13.01,2013-01-10 23:20:00,
2013-01-10 17:25:00,58.3,57.2,29.86,SSE,164,0.0,0.0,96,0.03,,---,0.12,VWS V13.01,2013-01-10 23:25:00,
2013-01-10 17:30:00,58.2,57.1,29.86,SSE,168,0.0,0.0,96,0.03,,---,0.12,VWS V13.01,2013-01-10 23:30:00,
2013-01-10 17:35:00,58.2,57.1,29.86,SSE,168,0.0,0.0,96,0.03,,---,0.12,VWS V13.01,2013-01-10 23:35:00,
2013-01-10 17:40:00,58.2,57.1,29.86,South,171,0.0,0.0,96,0.02,,---,0.12,VWS V13.01,2013-01-10 23:40:00,
2013-01-10 17:45:00,58.2,57.1,29.86,SSE,167,0.0,0.0,96,0.02,,---,0.12,VWS V13.01,2013-01-10 23:45:00,
2013-01-10 17:50:00,58.1,57.0,29.86,SSE,168,0.0,0.0,96,0.02,,---,0.12,VWS V13.01,2013-01-10 23:50:00,
2013-01-10 17:55:00,58.1,57.0,29.86,South,169,0.0,0.0,96,0.02,,---,0.12,VWS V13.01,2013-01-10 23:55:00,
2013-01-10 18:01:00,58.0,56.9,29.86,SSE,168,0.0,0.0,96,0.02,,---,0.12,VWS V13.01,2013-01-11 00:01:00,
2013-01-10 18:06:00,58.0,56.9,29.87,South,169,0.0,0.0,96,0.02,,---,0.12,VWS V13.01,2013-01-11 00:06:00,
2013-01-10 18:11:00,57.9,56.8,29.87,SSE,168,0.0,0.0,96,0.00,,---,0.12,VWS V13.01,2013-01-11 00:11:00,
2013-01-10 18:16:00,57.9,56.8,29.87,South,169,0.0,0.0,96,0.00,,---,0.12,VWS V13.01,2013-01-11 00:16:00,
2013-01-10 18:21:00,57.9,56.8,29.87,South,169,0.0,0.0,96,0.00,,---,0.12,VWS V13.01,2013-01-11 00:21:00,
2013-01-10 18:26:00,57.9,56.8,29.87,South,169,0.0,0.0,96,0.00,,---,0.12,VWS V13.01,2013-01-11 00:26:00,
2013-01-10 18:31:00,57.8,56.7,29.87,South,169,0.0,0.0,96,0.00,,---,0.12,VWS V13.01,2013-01-11 00:31:00,
2013-01-10 18:36:00,57.8,56.7,29.87,South,169,0.0,0.0,96,0.00,,---,0.12,VWS V13.01,2013-01-11 00:36:00,
2013-01-10 18:41:00,57.8,56.7,29.87,South,178,0.0,0.0,96,0.00,,---,0.12,VWS V13.01,2013-01-11 00:41:00,
2013-01-10 18:46:00,57.9,56.8,29.87,South,178,0.0,0.0,96,0.00,,---,0.12,VWS V13.01,2013-01-11 00:46:00,
2013-01-10 18:51:00,57.9,56.8,29.87,South,178,0.0,0.0,96,0.00,,---,0.12,VWS V13.01,2013-01-11 00:51:00,
2013-01-10 18:56:00,57.9,56.8,29.87,South,178,0.0,0.0,96,0.00,,---,0.12,VWS V13.01,2013-01-11 00:56:00,
2013-01-10 19:02:00,57.8,56.7,29.87,South,178,0.0,0.0,96,0.00,,---,0.12,VWS V13.01,2013-01-11 01:02:00,
2013-01-10 19:07:00,57.8,56.7,29.87,South,178,0.0,0.0,96,0.00,,---,0.12,VWS V13.01,2013-01-11 01:07:00,
2013-01-10 19:12:00,57.7,56.6,29.87,South,178,0.0,0.0,96,0.00,,---,0.12,VWS V13.01,2013-01-11 01:12:00,
2013-01-10 19:17:00,57.6,56.5,29.88,South,178,0.0,0.0,96,0.00,,---,0.12,VWS V13.01,2013-01-11 01:17:00,
2013-01-10 19:22:00,57.6,56.5,29.88,South,178,0.0,0.0,96,0.00,,---,0.12,VWS V13.01,2013-01-11 01:22:00,
2013-01-10 19:27:00,57.7,56.6,29.88,South,178,0.0,0.0,96,0.00,,---,0.12,VWS V13.01,2013-01-11 01:27:00,
2013-01-10 19:32:00,57.7,56.6,29.88,South,182,0.0,0.0,96,0.00,,---,0.12,VWS V13.01,2013-01-11 01:32:00,
2013-01-10 19:37:00,57.7,56.6,29.87,SSW,193,0.0,0.0,96,0.00,,---,0.12,VWS V13.01,2013-01-11 01:37:00,
2013-01-10 19:43:00,57.8,56.7,29.88,South,191,0.0,0.0,96,0.00,,---,0.12,VWS V13.01,2013-01-11 01:43:00,
2013-01-10 19:48:00,57.7,56.6,29.89,SW,222,0.0,0.0,96,0.00,,---,0.12,VWS V13.01,2013-01-11 01:48:00,
2013-01-10 19:53:00,57.6,56.5,29.89,SW,218,0.0,0.0,96,0.00,,---,0.12,VWS V13.01,2013-01-11 01:53:00,
2013-01-10 19:58:00,57.4,56.3,29.89,West,278,0.0,0.0,96,0.00,,---,0.12,VWS V13.01,2013-01-11 01:58:00,
2013-01-10 20:03:00,57.2,56.1,29.89,WSW,248,0.0,0.0,96,0.00,,---,0.12,VWS V13.01,2013-01-11 02:03:00,
2013-01-10 20:08:00,57.1,56.0,29.90,WSW,237,0.0,0.0,96,0.00,,---,0.12,VWS V13.01,2013-01-11 02:08:00,
2013-01-10 20:13:00,56.9,55.8,29.90,WSW,237,0.0,0.0,96,0.00,,---,0.12,VWS V13.01,2013-01-11 02:13:00,
2013-01-10 20:18:00,56.6,55.5,29.90,NW,321,0.0,0.0,96,0.00,,---,0.12,VWS V13.01,2013-01-11 02:18:00,
2013-01-10 20:23:00,56.4,55.3,29.91,NW,313,0.0,0.0,96,0.00,,---,0.12,VWS V13.01,2013-01-11 02:23:00,
2013-01-10 20:28:00,56.2,55.1,29.91,NW,314,0.0,0.0,96,0.00,,---,0.12,VWS V13.01,2013-01-11 02:28:00,
2013-01-10 20:33:00,56.0,54.9,29.91,West,265,0.0,0.0,96,0.00,,---,0.12,VWS V13.01,2013-01-11 02:33:00,
2013-01-10 20:38:00,55.7,54.3,29.91,WNW,298,0.0,0.0,95,0.00,,---,0.12,VWS V13.01,2013-01-11 02:38:00,
2013-01-10 20:43:00,55.5,54.1,29.91,WNW,300,0.0,0.0,95,0.00,,---,0.12,VWS V13.01,2013-01-11 02:43:00,
2013-01-10 20:48:00,55.1,53.7,29.92,WNW,299,0.0,0.0,95,0.00,,---,0.12,VWS V13.01,2013-01-11 02:48:00,
2013-01-10 20:53:00,54.4,53.0,29.92,WSW,248,0.0,0.0,95,0.00,,---,0.12,VWS V13.01,2013-01-11 02:53:00,
2013-01-10 20:59:00,54.0,52.6,29.92,SW,217,0.0,0.0,95,0.00,,---,0.12,VWS V13.01,2013-01-11 02:59:00,
2013-01-10 21:04:00,53.6,52.2,29.92,WNW,289,0.0,0.0,95,0.00,,---,0.12,VWS V13.01,2013-01-11 03:04:00,
2013-01-10 21:09:00,53.5,52.1,29.92,WSW,242,0.0,0.0,95,0.00,,---,0.12,VWS V13.01,2013-01-11 03:09:00,
2013-01-10 21:14:00,53.4,52.0,29.92,WNW,301,0.0,0.0,95,0.00,,---,0.12,VWS V13.01,2013-01-11 03:14:00,
2013-01-10 21:19:00,53.2,51.8,29.92,WSW,246,0.0,0.0,95,0.00,,---,0.12,VWS V13.01,2013-01-11 03:19:00,
2013-01-10 21:24:00,53.0,51.3,29.92,WSW,252,0.0,0.0,94,0.00,,---,0.12,VWS V13.01,2013-01-11 03:24:00,
2013-01-10 21:29:00,53.0,51.3,29.92,WSW,248,0.0,0.0,94,0.00,,---,0.12,VWS V13.01,2013-01-11 03:29:00,
2013-01-10 21:34:00,53.0,51.0,29.92,WSW,241,0.0,0.0,93,0.00,,---,0.12,VWS V13.01,2013-01-11 03:34:00,
2013-01-10 21:39:00,53.1,51.1,29.92,SW,225,0.0,0.0,93,0.00,,---,0.12,VWS V13.01,2013-01-11 03:39:00,
2013-01-10 21:44:00,53.1,50.8,29.92,West,279,0.0,0.0,92,0.00,,---,0.12,VWS V13.01,2013-01-11 03:44:00,
2013-01-10 21:49:00,53.0,50.7,29.92,SW,214,0.0,0.0,92,0.00,,---,0.12,VWS V13.01,2013-01-11 03:49:00,
2013-01-10 21:54:00,53.0,50.5,29.92,SW,236,0.0,0.0,91,0.00,,---,0.12,VWS V13.01,2013-01-11 03:54:00,
2013-01-10 21:59:00,52.9,50.3,29.92,SW,234,0.0,0.0,91,0.00,,---,0.12,VWS V13.01,2013-01-11 03:59:00,
2013-01-10 22:05:00,52.9,50.0,29.92,SW,236,0.0,0.0,90,0.00,,---,0.12,VWS V13.01,2013-01-11 04:05:00,
2013-01-10 22:10:00,52.8,50.0,29.92,SSW,209,0.0,0.0,90,0.00,,---,0.12,VWS V13.01,2013-01-11 04:10:00,
2013-01-10 22:15:00,52.7,49.5,29.92,West,271,0.0,0.0,89,0.00,,---,0.12,VWS V13.01,2013-01-11 04:15:00,
2013-01-10 22:20:00,52.5,49.4,29.92,SW,218,0.0,0.0,89,0.00,,---,0.12,VWS V13.01,2013-01-11 04:20:00,
2013-01-10 22:25:00,52.4,49.0,29.92,WSW,257,0.0,0.0,88,0.00,,---,0.12,VWS V13.01,2013-01-11 04:25:00,
2013-01-10 22:30:00,52.3,48.9,29.92,SSW,209,0.0,0.0,88,0.00,,---,0.12,VWS V13.01,2013-01-11 04:30:00,
2013-01-10 22:35:00,52.2,48.8,29.92,SW,221,0.0,0.0,88,0.00,,---,0.12,VWS V13.01,2013-01-11 04:35:00,
2013-01-10 22:40:00,52.1,48.4,29.92,SW,220,0.0,0.0,87,0.00,,---,0.12,VWS V13.01,2013-01-11 04:40:00,
2013-01-10 22:45:00,52.1,48.4,29.93,SW,226,0.0,0.0,87,0.00,,---,0.12,VWS V13.01,2013-01-11 04:45:00,
2013-01-10 22:50:00,52.1,48.4,29.92,WNW,294,0.0,0.0,87,0.00,,---,0.12,VWS V13.01,2013-01-11 04:50:00,
2013-01-10 22:55:00,52.1,48.0,29.92,WSW,238,0.0,0.0,86,0.00,,---,0.12,VWS V13.01,2013-01-11 04:55:00,
2013-01-10 23:00:00,52.2,48.2,29.92,WSW,237,0.0,0.0,86,0.00,,---,0.12,VWS V13.01,2013-01-11 05:00:00,
2013-01-10 23:01:00,52.2,48.2,29.92,WSW,237,0.0,0.0,86,0.00,,---,0.12,VWS V13.01,2013-01-11 05:01:00,
2013-01-10 23:03:00,52.2,48.2,29.92,WSW,237,0.0,0.0,86,0.00,,---,0.12,VWS V13.01,2013-01-11 05:03:00,
2013-01-10 23:05:00,52.3,48.2,29.92,SW,217,0.0,0.0,86,0.00,,---,0.12,VWS V13.01,2013-01-11 05:05:00,
2013-01-10 23:10:00,52.2,47.8,29.92,West,274,0.0,0.0,85,0.00,,---,0.12,VWS V13.01,2013-01-11 05:10:00,
2013-01-10 23:15:00,52.1,47.7,29.92,SW,233,0.0,0.0,85,0.00,,---,0.12,VWS V13.01,2013-01-11 05:15:00,
2013-01-10 23:20:00,52.0,47.6,29.92,WNW,286,0.0,0.0,85,0.00,,---,0.12,VWS V13.01,2013-01-11 05:20:00,
2013-01-10 23:25:00,51.9,47.5,29.92,WSW,244,0.0,0.0,85,0.00,,---,0.12,VWS V13.01,2013-01-11 05:25:00,
2013-01-10 23:30:00,51.8,47.4,29.92,WSW,244,0.0,0.0,85,0.00,,---,0.12,VWS V13.01,2013-01-11 05:30:00,
2013-01-10 23:35:00,51.7,47.3,29.92,NW,319,0.0,0.0,85,0.00,,---,0.12,VWS V13.01,2013-01-11 05:35:00,
2013-01-10 23:40:00,51.5,47.2,29.92,NW,319,0.0,0.0,85,0.00,,---,0.12,VWS V13.01,2013-01-11 05:40:00,
2013-01-10 23:45:00,51.3,47.0,29.92,West,274,0.0,0.0,85,0.00,,---,0.12,VWS V13.01,2013-01-11 05:45:00,
2013-01-10 23:50:00,51.1,46.8,29.92,WNW,285,0.0,0.0,85,0.00,,---,0.12,VWS V13.01,2013-01-11 05:50:00,
2013-01-10 23:55:00,51.0,46.7,29.92,WNW,303,0.0,0.0,85,0.00,,---,0.12,VWS V13.01,2013-01-11 05:55:00,